When you browse on this site, cookies collect data to enhance your experience and personalize the content and advertising you see.
Visit our Privacy Policy to learn more. By continuing to use the site, you agree to this use of cookies and data.
  • In France
  • List of Countries
  • For 7 days
  • Water Temperature
  • Satellite Maps
  • Weather Map
  • Weather Widgets
  • user-avatar
    Login

    Hourly Weather Galata

    Today, 27 May, Monday

    Time Temperature Precipitation Wind Pressure Humidity
    00:00 +18°C° 0 mm 1 mps 756 mmHg 84%
    01:00 +18°C° 0 mm 1 mps 756 mmHg 85%
    02:00 +16°C° 0 mm 1 mps 756 mmHg 85%
    03:00 +16°C° 0 mm 1 mps 756 mmHg 85%
    04:00 +16°C° 0 mm 1 mps 756 mmHg 85%
    05:00 +16°C° 0 mm 1 mps 756 mmHg 85%
    06:00 +19°C° 0 mm 1 mps 756 mmHg 81%
    07:00 +20°C° 0 mm 2 mps 757 mmHg 76%
    08:00 +21°C° 0 mm 2 mps 757 mmHg 72%
    09:00 +23°C° 0 mm 2 mps 757 mmHg 68%
    10:00 +24°C° 0 mm 3 mps 757 mmHg 65%
    11:00 +25°C° 0 mm 4 mps 757 mmHg 62%
    12:00 +25°C° 0 mm 4 mps 757 mmHg 62%
    13:00 +25°C° 0 mm 4 mps 756 mmHg 62%
    14:00 +23°C° 0 mm 5 mps 756 mmHg 63%
    15:00 +23°C° 0 mm 5 mps 756 mmHg 65%
    16:00 +22°C° 0 mm 4 mps 756 mmHg 68%
    17:00 +22°C° 0 mm 4 mps 755 mmHg 70%
    18:00 +20°C° 0 mm 4 mps 755 mmHg 77%
    19:00 +19°C° 0 mm 3 mps 755 mmHg 84%
    20:00 +17°C° 0 mm 2 mps 755 mmHg 90%
    21:00 +17°C° 0 mm 2 mps 755 mmHg 91%
    22:00 +17°C° 0 mm 2 mps 755 mmHg 91%
    23:00 +17°C° 0 mm 2 mps 755 mmHg 92%

    Tomorrow, 28 May, Tuesday

    Time Temperature Precipitation Wind Pressure Humidity
    00:00 +16°C° 0 mm 2 mps 755 mmHg 92%
    01:00 +16°C° 0 mm 2 mps 755 mmHg 93%
    02:00 +16°C° 0 mm 2 mps 754 mmHg 93%
    03:00 +16°C° 0 mm 2 mps 754 mmHg 93%
    04:00 +16°C° 0 mm 2 mps 754 mmHg 93%
    05:00 +16°C° 0 mm 2 mps 754 mmHg 93%
    06:00 +17°C° 0 mm 2 mps 753 mmHg 88%
    07:00 +19°C° 0 mm 2 mps 753 mmHg 82%
    08:00 +21°C° 0 mm 3 mps 753 mmHg 77%
    09:00 +22°C° 0 mm 3 mps 753 mmHg 73%
    10:00 +24°C° 0 mm 3 mps 753 mmHg 69%
    11:00 +25°C° 0 mm 3 mps 753 mmHg 65%
    12:00 +25°C° 0 mm 3 mps 753 mmHg 65%
    13:00 +26°C° 0 mm 4 mps 752 mmHg 65%
    14:00 +26°C° 0 mm 4 mps 752 mmHg 64%
    15:00 +25°C° 0 mm 4 mps 751 mmHg 67%
    16:00 +25°C° 0 mm 4 mps 751 mmHg 69%
    17:00 +24°C° 0 mm 3 mps 751 mmHg 72%
    18:00 +22°C° 0 mm 3 mps 750 mmHg 76%
    19:00 +20°C° 0 mm 3 mps 750 mmHg 80%
    20:00 +19°C° 0 mm 2 mps 750 mmHg 85%
    21:00 +19°C° 0 mm 3 mps 751 mmHg 86%
    22:00 +19°C° 0 mm 3 mps 751 mmHg 88%
    23:00 +19°C° 0 mm 3 mps 751 mmHg 89%

    Day after tomorrow, 29 May, Wednesday

    Time Temperature Precipitation Wind Pressure Humidity
    00:00 +18°C° 0 mm 3 mps 751 mmHg 86%
    01:00 +18°C° 0 mm 3 mps 751 mmHg 83%
    02:00 +17°C° 0 mm 3 mps 751 mmHg 80%
    03:00 +17°C° 0 mm 3 mps 751 mmHg 81%
    04:00 +16°C° 0 mm 3 mps 751 mmHg 82%
    05:00 +16°C° 0 mm 3 mps 751 mmHg 83%
    06:00 +18°C° 0 mm 3 mps 751 mmHg 78%
    07:00 +20°C° 0 mm 3 mps 751 mmHg 73%
    08:00 +22°C° 0 mm 3 mps 751 mmHg 68%
    09:00 +25°C° 0 mm 3 mps 751 mmHg 64%
    10:00 +26°C° 0 mm 3 mps 752 mmHg 60%
    11:00 +28°C° 0 mm 3 mps 752 mmHg 55%
    12:00 +28°C° 0 mm 3 mps 752 mmHg 54%
    13:00 +29°C° 0 mm 4 mps 752 mmHg 53%
    14:00 +29°C° 0 mm 4 mps 751 mmHg 52%
    15:00 +28°C° 0 mm 4 mps 751 mmHg 55%
    16:00 +28°C° 0 mm 4 mps 751 mmHg 59%
    17:00 +27°C° 0 mm 4 mps 751 mmHg 63%
    18:00 +25°C° 0 mm 4 mps 751 mmHg 68%
    19:00 +24°C° 0 mm 3 mps 751 mmHg 72%
    20:00 +21°C° 0 mm 2 mps 752 mmHg 77%
    21:00 +21°C° 0 mm 2 mps 752 mmHg 77%
    22:00 +21°C° 0 mm 1 mps 752 mmHg 77%
    23:00 +21°C° 0 mm 1 mps 752 mmHg 77%

    30 May, Thursday

    Time Temperature Precipitation Wind Pressure Humidity
    00:00 +20°C° 0 mm 1 mps 753 mmHg 78%
    01:00 +20°C° 0 mm 1 mps 753 mmHg 78%
    02:00 +19°C° 0 mm 1 mps 753 mmHg 79%
    03:00 +19°C° 0 mm 1 mps 753 mmHg 80%
    04:00 +19°C° 0 mm 1 mps 753 mmHg 82%
    05:00 +19°C° 0 mm 1 mps 753 mmHg 83%
    06:00 +21°C° 0 mm 1 mps 753 mmHg 78%
    07:00 +20°C° 0 mm 0 mps 753 mmHg 73%
    08:00 +22°C° 0 mm 0 mps 753 mmHg 68%
    09:00 +25°C° 0 mm 1 mps 753 mmHg 63%
    10:00 +27°C° 0 mm 1 mps 753 mmHg 59%
    11:00 +28°C° 0 mm 1 mps 753 mmHg 55%
    12:00 +28°C° 0 mm 2 mps 753 mmHg 56%
    13:00 +28°C° 0 mm 3 mps 753 mmHg 57%
    14:00 +27°C° 0 mm 4 mps 753 mmHg 58%
    15:00 +27°C° 0 mm 4 mps 752 mmHg 60%
    16:00 +26°C° 0 mm 3 mps 752 mmHg 63%
    17:00 +25°C° 0 mm 2 mps 752 mmHg 65%
    18:00 +23°C° 0 mm 2 mps 752 mmHg 70%
    19:00 +21°C° 0 mm 1 mps 752 mmHg 74%
    20:00 +18°C° 0 mm 0 mps 752 mmHg 78%
    21:00 +17°C° 0 mm 0 mps 752 mmHg 77%
    22:00 +17°C° 0 mm 0 mps 752 mmHg 76%
    23:00 +17°C° 0 mm 0 mps 752 mmHg 74%

    31 May, Friday

    Time Temperature Precipitation Wind Pressure Humidity
    00:00 +19°C° 0 mm 1 mps 752 mmHg 79%
    01:00 +18°C° 0 mm 2 mps 752 mmHg 84%
    02:00 +17°C° 0 mm 3 mps 752 mmHg 89%
    03:00 +17°C° 0 mm 4 mps 752 mmHg 91%
    04:00 +17°C° 0 mm 4 mps 752 mmHg 93%
    05:00 +15°C° 0 mm 4 mps 752 mmHg 95%
    06:00 +18°C° 0 mm 4 mps 752 mmHg 90%
    07:00 +19°C° 0 mm 4 mps 752 mmHg 86%
    08:00 +20°C° 0 mm 4 mps 752 mmHg 81%
    09:00 +21°C° 0 mm 4 mps 752 mmHg 77%
    10:00 +24°C° 0 mm 3 mps 752 mmHg 73%
    11:00 +25°C° 0 mm 3 mps 752 mmHg 68%
    12:00 +25°C° 0.1 mm 2 mps 751 mmHg 68%
    13:00 +26°C° 0.1 mm 2 mps 751 mmHg 67%
    14:00 +26°C° 0.1 mm 2 mps 751 mmHg 66%
    15:00 +26°C° 0.7 mm 1 mps 751 mmHg 68%
    16:00 +26°C° 0.7 mm 1 mps 751 mmHg 69%
    17:00 +25°C° 0.7 mm 1 mps 750 mmHg 71%
    18:00 +24°C° 1.5 mm 2 mps 750 mmHg 76%
    19:00 +21°C° 1.5 mm 2 mps 750 mmHg 81%
    20:00 +20°C° 1.5 mm 3 mps 750 mmHg 86%
    21:00 +19°C° 0.1 mm 3 mps 750 mmHg 88%
    22:00 +18°C° 0.1 mm 4 mps 750 mmHg 89%
    23:00 +18°C° 0.1 mm 4 mps 750 mmHg 91%

    1 June, Saturday

    Time Temperature Precipitation Wind Pressure Humidity
    00:00 +16°C° 0.1 mm 5 mps 750 mmHg 90%
    01:00 +16°C° 0.1 mm 5 mps 750 mmHg 90%
    02:00 +15°C° 0.1 mm 6 mps 750 mmHg 90%
    03:00 +15°C° 0.1 mm 6 mps 750 mmHg 90%
    04:00 +15°C° 0.1 mm 6 mps 750 mmHg 90%
    05:00 +15°C° 0.1 mm 6 mps 751 mmHg 89%
    06:00 +16°C° 0 mm 6 mps 751 mmHg 86%
    07:00 +17°C° 0 mm 6 mps 751 mmHg 83%
    08:00 +19°C° 0 mm 6 mps 751 mmHg 80%
    09:00 +20°C° 0 mm 5 mps 751 mmHg 76%
    10:00 +22°C° 0 mm 5 mps 751 mmHg 72%
    11:00 +23°C° 0 mm 4 mps 752 mmHg 68%
    12:00 +23°C° 0.1 mm 5 mps 752 mmHg 69%
    13:00 +23°C° 0.1 mm 6 mps 752 mmHg 69%
    14:00 +23°C° 0.1 mm 6 mps 752 mmHg 69%
    15:00 +22°C° 0 mm 6 mps 752 mmHg 71%
    16:00 +21°C° 0 mm 7 mps 752 mmHg 73%
    17:00 +20°C° 0 mm 7 mps 752 mmHg 76%
    18:00 +18°C° 0 mm 7 mps 753 mmHg 78%
    19:00 +17°C° 0 mm 7 mps 753 mmHg 80%
    20:00 +16°C° 0 mm 7 mps 753 mmHg 82%
    21:00 +15°C° 0 mm 7 mps 754 mmHg 83%
    22:00 +14°C° 0 mm 6 mps 754 mmHg 84%
    23:00 +14°C° 0 mm 6 mps 755 mmHg 85%
    Show more